{"data":{"norad_id":64604,"intl_designator":"2025-137L","name":"STARLINK-34488","alt_names":[],"object_type":"PAYLOAD","status":"ACTIVE","operator":null,"country":"US","launch_date":"2025-06-25","launch_site_code":"AFETR","launch_vehicle":null,"mission":null,"orbit_class":"UNKNOWN","rcs_meters":null,"size_class":null,"mass_kg":null,"dimensions":null,"purposes":["comms"],"wikipedia_slug":null,"has_3d_model":false,"image_url":null,"decayed_at":null,"tle_current":{"epoch":"2026-05-24T22:55:51.164256Z","epoch_age_seconds":78557,"freshness":"FRESH","line1":"1 64604U 25137L   26144.95545329  .00029196  00000+0  99390-3 0  9996","line2":"2 64604  53.1596 340.8394 0000992  84.1912 275.9202 15.30203330 52416","mean_motion":15.3020333,"eccentricity":9.92e-5,"inclination_deg":53.1596,"raan_deg":340.8394,"arg_perigee_deg":84.1912,"mean_anomaly_deg":275.9202,"bstar":0.0009939,"rev_number":5241,"period_min":94.105140916142,"perigee_km":474.52527511863,"apogee_km":475.88497819656,"semimajor_km":6853.3421266576,"source":"CELESTRAK","updated_at":"2026-05-25T13:38:20.494618Z"}}}